Volver al catálogo

STARLINK-34775

ActivoComunicacionesSSO
NORAD 64934·PAYLOAD·🇺🇸 United States

Lanzado Jul 26, 2025 desde Vandenberg Space Force Base

Loading…

Próximos Pases (próximas 24 horas)

TLE

ActualizadoSource: CelesTrak SupGP

Época: Sep 14, 2026, 15:15 UTC

1 64934C 25158C   26257.63590278 -.00005598  00000+0 -17382-3 0  2578
2 64934  97.2832 116.0411 0000928 126.7934  48.5046 15.33435501    12

Sigue STARLINK-34775 en tiempo real con AllMySat

Download on the App Store